Location: Unspecified
(28.6120°N, 0.0000°E)
Time: 03:08:01
(UTC+00:00)

CZ-6A DEB - Visible Passes

Search period start: 04 April 2026 00:00
Search period end: 14 April 2026 00:00
Orbit: 768 x 824 km, 98.8° (Epoch: 27 March)

Date Brightness Start Highest point End Pass type
(mag) Time Alt. Az. Time Alt. Az. Time Alt. Az.
4 Apr ? 18:40:07 10° SE 18:44:35 28° ENE 18:49:04 10° NNE visible
4 Apr ? 20:19:30 10° SSW 20:23:59 27° W 20:28:31 10° NW visible
5 Apr ? 19:51:00 10° S 19:56:13 54° W 20:01:29 10° NNW visible
6 Apr ? 19:23:11 10° SSE 19:28:33 78° ENE 19:33:56 10° N visible
7 Apr ? 18:56:00 10° SE 19:00:58 40° ENE 19:05:57 10° N visible
7 Apr ? 20:36:55 10° SW 20:40:34 19° W 20:44:15 10° NW visible
8 Apr ? 20:07:51 10° SSW 20:12:45 36° W 20:17:41 10° NNW visible
9 Apr ? 19:39:41 10° S 19:45:01 72° WSW 19:50:24 10° NNW visible
10 Apr ? 19:12:07 10° SSE 19:17:23 59° ENE 19:22:40 10° N visible
10 Apr ? 20:55:09 10° WSW 20:57:12 12° W 20:59:14 10° WNW visible
11 Apr ? 18:45:12 10° SE 18:49:50 31° ENE 18:54:30 10° N visible
11 Apr ? 20:25:01 10° SSW 20:29:19 25° W 20:33:39 10° NW visible
12 Apr ? 19:56:22 10° S 20:01:32 48° W 20:06:42 10° NNW visible
13 Apr ? 19:28:27 10° SSE 19:33:49 87° E 19:39:13 10° NNW visible
